Location: Wellington
(41.3000°S, 174.8000°E)
Time: 22:34:14
(UTC+12:00)

ISS - Visible Passes

Search period start: 13 May 2021 00:00
Search period end: 23 May 2021 00:00
Orbit: 417 x 422 km, 51.6° (Epoch: 13 May)

Date Brightness Start Highest point End Pass type
(mag) Time Alt. Az. Time Alt. Az. Time Alt. Az.
13 May -0.5 17:40:55 10° W 17:43:05 16° NW 17:45:14 10° N visible
19 May -0.3 06:28:05 10° NNE 06:29:32 12° NE 06:30:58 10° ENE visible
21 May -1.9 06:27:57 10° NNW 06:31:05 34° NE 06:34:16 10° ESE visible
22 May -1.1 05:41:09 10° N 05:43:47 21° NE 05:46:25 10° E visible
